Crescent City, CA

8:24 PM PDT on May 24, 2018 (GMT -0700)
McNamara

Weather History for KCEC - May, 2013

Change the Weather History Date:

Sunday, May 5, 2013

  Actual Average Record
Temperature  
Mean Temperature 59 °F 51 °F  
Max Temperature 70 °F 56 °F 74 °F (1953)
Min Temperature 47 °F 46 °F 35 °F (1965)
Degree Days  
Heating Degree Days 8 14  
Month to date heating degree days 70  
Since 1 July heating degree days 4227  
Cooling Degree Days 0 0  
Month to date cooling degree days 0  
Year to date cooling degree days 0  
Growing Degree Days 8 (Base 50)    
Moisture  
Dew Point 47 °F    
Average Humidity 61    
Maximum Humidity 93    
Minimum Humidity 28    
Precipitation  
Precipitation 0.05 in 0.11 in 2.27 in (1963)
Month to date precipitation 0.05 0.58  
Year to date precipitation 16.36 32.91  
Since 1 July precipitation 50.06  
Snow  
Snow 0.00 in - - ()
Month to date snowfall 0.0  
Since 1 July snowfall 0.0  
Snow Depth -    
Sea Level Pressure  
Sea Level Pressure 29.72 in    
Wind  
Wind Speed 10 mph (SE)    
Max Wind Speed 24 mph    
Max Gust Speed 29 mph    
Visibility 7 miles    
Events Rain , Thunderstorm    
T = Trace of Precipitation, MM = Missing Value Source: NWS Daily Summary

Daily Weather History Graph

Daily Weather History Graph

Search for Another Location

Airport or City:

Astronomy

May. 05, 2013 Rise Set
Actual Time 6:07 AM PDT 8:20 PM PDT
Civil Twilight 5:37 AM PDT 8:50 PM PDT
Nautical Twilight 4:59 AM PDT 9:28 PM PDT
Astronomical Twilight 4:17 AM PDT 10:10 PM PDT
Moon 3:45 AM PDT (5/5) 4:22 PM PDT (5/5)
Length of Visible Light 15h 13m
Length of Day
14h 12m
Waning Crescent, 17% of the Moon is Illuminated
May 5
Waning Crescent
May 9
New
May 17
First Quarter
May 24
Full
May 31
Last Quarter

Hourly Weather History & Observations

Time (PDT) Temp. Windchill Dew Point Humidity Pressure Visibility Wind Dir Wind Speed Gust Speed Precip Events Conditions
12:56 AM 69.1 °F - 35.1 °F 29% 29.63 in 10.0 mi NNE 5.8 mph - N/A   Clear
1:56 AM 66.0 °F - 37.0 °F 34% 29.62 in 10.0 mi NNE 5.8 mph - N/A   Clear
2:56 AM 57.0 °F - 42.1 °F 57% 29.60 in 8.0 mi Calm Calm - N/A   Clear
3:56 AM 64.0 °F - 37.9 °F 38% 29.58 in 10.0 mi NNE 11.5 mph - N/A   Clear
4:56 AM 64.0 °F - 39.0 °F 40% 29.58 in 10.0 mi North 4.6 mph - N/A   Clear
5:56 AM 46.9 °F - 41.0 °F 80% 29.61 in 5.0 mi SSE 16.1 mph - N/A   Haze
5:59 AM 46.4 °F 39.2 °F 42.8 °F 87% 29.61 in 2.5 mi SSE 18.4 mph - N/A   Haze
6:08 AM 46.4 °F 39.5 °F 42.8 °F 87% 29.61 in 1.8 mi SSE 17.3 mph 24.2 mph N/A   Mostly Cloudy
6:27 AM 46.4 °F 39.2 °F 44.6 °F 93% 29.62 in 1.0 mi SSE 18.4 mph 26.5 mph N/A   Overcast
6:56 AM 46.9 °F - 45.0 °F 93% 29.63 in 1.0 mi SSE 21.9 mph 28.8 mph N/A   Overcast
7:29 AM 48.2 °F - 46.4 °F 93% 29.65 in 1.5 mi South 18.4 mph 27.6 mph N/A   Overcast
7:42 AM 48.2 °F - 46.4 °F 93% 29.65 in 2.5 mi South 23.0 mph - N/A   Overcast
7:56 AM 48.0 °F - 46.9 °F 96% 29.66 in 1.8 mi SSE 19.6 mph - N/A   Overcast
8:16 AM 48.2 °F - 46.4 °F 93% 29.66 in 3.0 mi South 19.6 mph - N/A   Overcast
8:38 AM 48.2 °F - 48.2 °F 100% 29.67 in 2.0 mi SSE 13.8 mph - N/A   Overcast
8:56 AM 50.0 °F - 48.9 °F 96% 29.68 in 4.0 mi SSE 12.7 mph - N/A   Overcast
9:39 AM 51.8 °F - 50.0 °F 94% 29.69 in 10.0 mi SSE 12.7 mph - N/A   Overcast
9:56 AM 53.1 °F - 50.0 °F 89% 29.70 in 9.0 mi SSE 11.5 mph - N/A   Overcast
10:56 AM 54.0 °F - 48.9 °F 83% 29.72 in 8.0 mi South 12.7 mph - N/A   Overcast
11:54 AM 53.6 °F - 48.2 °F 82% 29.74 in 7.0 mi South 10.4 mph - N/A   Overcast
11:56 AM 53.1 °F - 48.9 °F 86% 29.74 in 7.0 mi South 10.4 mph - N/A   Overcast
12:49 PM 53.6 °F - 50.0 °F 88% 29.75 in 7.0 mi South 4.6 mph - N/A   Overcast
12:56 PM 54.0 °F - 50.0 °F 86% 29.75 in 8.0 mi South 3.5 mph - N/A   Overcast
1:56 PM 55.9 °F - 50.0 °F 80% 29.76 in 9.0 mi Variable 3.5 mph - N/A   Overcast
2:38 PM 55.4 °F - 50.0 °F 82% 29.77 in 10.0 mi Calm Calm - N/A   Overcast
2:56 PM 55.9 °F - 50.0 °F 80% 29.78 in 10.0 mi SE 3.5 mph - N/A   Overcast
3:40 PM 55.4 °F - 48.2 °F 77% 29.79 in 8.0 mi Calm Calm - 0.00 in Rain , Thunderstorm Light Thunderstorms and Rain
3:56 PM 54.0 °F - 48.9 °F 83% 29.80 in 2.0 mi SE 6.9 mph - 0.05 in Rain , Thunderstorm Thunderstorms and Rain
4:02 PM 53.6 °F - 50.0 °F 88% 29.79 in 6.0 mi East 3.5 mph - 0.00 in Rain Light Rain
4:56 PM 55.0 °F - 50.0 °F 83% 29.81 in 10.0 mi Calm Calm - 0.00 in   Overcast
5:23 PM 55.4 °F - 51.8 °F 88% 29.80 in 10.0 mi South 5.8 mph - N/A   Mostly Cloudy
5:56 PM 55.9 °F - 52.0 °F 87% 29.80 in 10.0 mi Calm Calm - N/A   Clear
6:56 PM 55.9 °F - 50.0 °F 80% 29.83 in 10.0 mi NE 4.6 mph - N/A   Clear
7:56 PM 54.0 °F - 50.0 °F 86% 29.82 in 10.0 mi North 3.5 mph - N/A   Clear
8:56 PM 52.0 °F - 48.9 °F 89% 29.84 in 10.0 mi Calm Calm - N/A   Clear
9:56 PM 51.1 °F - 48.0 °F 89% 29.86 in 10.0 mi NE 4.6 mph - N/A   Clear
10:56 PM 51.1 °F - 48.9 °F 92% 29.87 in 10.0 mi NE 3.5 mph - N/A   Clear
11:56 PM 50.0 °F - 46.9 °F 89% 29.87 in 10.0 mi NE 3.5 mph - N/A   Clear